Home > Weather > Cologne > Past weeks

Flag for Germany Past Weather in Cologne, North Rhine-Westphalia, Germany — Yesterday and Last 2 Weeks

Now
66 °F

Light rain. Passing clouds.


Feels Like: 66 °F
Forecast: 61 / 73 °F
Wind: 3 mph from Southwest

Location: Koeln / Bonn

Current Time: Jul 28, 2016 at 3:00:05 AM

Latest Report: Jul 28, 2016 at 2:20 AM


Visibility: N/A

Pressure: 30.04 "Hg

Humidity: 73%

Dew Point: 57 °F

Location of CologneLocation

Past Weather in Cologne — Graph

°F

Cologne Temperature Yesterday

Maximum temperature yesterday: 75 °F (at 2:20 PM)
Minimum temperature yesterday: 55 °F (at 1:20 AM)
Average temperature yesterday: 66 °F

High & Low Weather Summary for the Past Weeks

 TemperatureHumidityPressure
High93 °F (Jul 20, 3:20 PM)100% (Jul 13, 4:20 AM)30.30 "Hg (Jul 13, 4:20 AM)
Low48 °F (Jul 14, 4:20 AM)32% (Jul 20, 3:20 PM)29.86 "Hg (Jul 20, 5:20 PM)
Average69 °F74%30.09 "Hg
* Reported Jul 13 1:20 AM — Jul 28 1:50 AM, Cologne, Weather by CustomWeather, © 2016

Note: Actual official high and low records may vary slightly from our data, if they occured in-between our weather recording intervals... More about our weather records

Advertising

Cologne Weather History for the Previous 24 Hours

Scroll right to see more
 ConditionsComfort  
Time TempWeatherWind HumidityBarometerVisibility
1:50 AM
Thu, Jul 28
66 °FMostly cloudy.5 mph73%30.04 "HgN/A
1:20 AM66 °FOvercast.5 mph73%30.04 "HgN/A
12:50 AM68 °FOvercast.5 mph69%30.04 "HgN/A
12:20 AM68 °FPassing clouds.8 mph64%30.04 "HgN/A
11:50 PM
Wed, Jul 27
68 °FOvercast.7 mph69%30.04 "HgN/A
11:20 PM70 °FPassing clouds.9 mph60%30.04 "HgN/A
10:50 PM70 °FClear.6 mph60%30.04 "Hg10 mi
10:20 PM70 °FPassing clouds.8 mph60%30.04 "HgN/A
9:50 PM70 °FPartly sunny.12 mph60%30.04 "HgN/A
9:20 PM70 °FBroken clouds.10 mph60%30.04 "HgN/A
8:50 PM70 °FScattered clouds.14 mph60%30.01 "HgN/A
8:20 PM72 °FBroken clouds.12 mph57%30.01 "HgN/A
7:50 PM72 °FScattered clouds.10 mph57%30.01 "HgN/A
7:20 PM73 °FScattered clouds.12 mph53%30.01 "HgN/A
6:50 PM72 °FScattered clouds.12 mph57%30.01 "HgN/A
6:20 PM75 °FSunny.17 mph50%30.01 "Hg10 mi
5:50 PM75 °FPassing clouds.14 mph50%30.01 "HgN/A
5:20 PM75 °FPassing clouds.15 mph50%30.01 "HgN/A
4:50 PM75 °FPassing clouds.14 mph50%30.01 "HgN/A
4:20 PM75 °FSunny.13 mph50%30.01 "Hg10 mi
3:50 PM75 °FPassing clouds.15 mph47%30.01 "HgN/A
3:20 PM75 °FSunny.13 mph50%30.01 "Hg10 mi
2:50 PM73 °FPassing clouds.10 mph47%30.01 "HgN/A
2:20 PM75 °FPassing clouds.15 mph44%30.04 "HgN/A
1:50 PM73 °FScattered clouds.10 mph53%30.04 "HgN/A
1:20 PM73 °FScattered clouds.7 mph53%30.04 "HgN/A
12:50 PM70 °FPartly sunny.6 mph64%30.04 "HgN/A
12:20 PM70 °FPartly sunny.9 mph64%30.07 "HgN/A
11:50 AM70 °FScattered clouds.7 mph64%30.07 "HgN/A
11:20 AM70 °FScattered clouds.6 mph64%30.07 "HgN/A
10:50 AM68 °FScattered clouds.6 mph69%30.07 "HgN/A
10:20 AM68 °FScattered clouds.5 mph69%30.07 "HgN/A
9:50 AM66 °FScattered clouds.5 mph78%30.07 "HgN/A
9:20 AM64 °FScattered clouds.7 mph78%30.07 "HgN/A
8:50 AM64 °FScattered clouds.5 mph83%30.07 "HgN/A
8:20 AM61 °FScattered clouds.3 mph94%30.07 "HgN/A
7:50 AM59 °FLight fog.2 mph100%30.07 "Hg5 mi
7:20 AM57 °FLight fog.1 mph100%30.07 "Hg3 mi
6:50 AM57 °FFog.2 mph100%30.07 "Hg1 mi
6:20 AM57 °FFog.3 mph100%30.07 "Hg1 mi
5:50 AM55 °FFog.1 mph100%30.07 "Hg2 mi
5:20 AM57 °FFog.2 mph94%30.07 "Hg3 mi
4:50 AM57 °FFog.1 mph100%30.07 "Hg3 mi
4:20 AM57 °FFog.2 mph94%30.07 "Hg3 mi
3:50 AM57 °FFog.2 mph94%30.07 "Hg3 mi
3:20 AM55 °FFog.3 mph100%30.07 "Hg4 mi
Weather by CustomWeather, © 2016

See weather overviewHow to use our weather pages